Weather History for Keahole Point, HI

Change the Weather History Date:

Friday, October 28, 2011

  Actual Average Record
Temperature  
Mean Temperature 78 °F -  
Max Temperature 82 °F 83 °F 90 °F (1986)
Min Temperature 73 °F 72 °F 66 °F (1993)
Cooling Degree Days 12    
Growing Degree Days 28 (Base 50)    
Moisture  
Dew Point 65 °F    
Average Humidity 65    
Maximum Humidity 79    
Minimum Humidity 52    
Precipitation  
Precipitation 0.00 in - - ()
Sea Level Pressure  
Sea Level Pressure 29.88 in    
Wind  
Wind Speed 7 mph (South)    
Max Wind Speed 14 mph    
Max Gust Speed -    
Visibility 10 miles    
Events      
Averages and records for this station are not official NWS values.
T = Trace of Precipitation, MM = Missing Value Source: NWS Daily Summary

Daily Weather History Graph

Daily Weather History Graph

Search for Another Location

Airport:

Trip Planner

Search our weather history database for the weather conditions in past years. The results will help you decide how hot, cold, wet, or windy it might be!

Date:

Astronomy

Oct. 28, 2011 Rise Set
Actual Time 6:23 AM HST 5:52 PM HST
Civil Twilight 6:01 AM HST 6:14 PM HST
Nautical Twilight 5:35 AM HST 6:40 PM HST
Astronomical Twilight 5:09 AM HST 7:06 PM HST
Moon 8:29 AM HST (10/28) 7:49 PM HST (10/28)
Length of Visible Light 12h 13m
Length of Day
11h 28m
Waxing Crescent, 6% of the Moon is Illuminated
Oct 28
Waxing Crescent
Nov 2
First Quarter
Nov 10
Full
Nov 18
Last Quarter
Nov 24
New

Hourly Weather History & Observations

Time (HST) Temp. Heat Index Dew Point Humidity Pressure Visibility Wind Dir Wind Speed Gust Speed Precip Events Conditions
12:53 AM 78.1 °F - 66.9 °F 68% 29.90 in 10.0 mi SSW 8.1 mph - N/A   Overcast
1:53 AM 75.9 °F - 68.0 °F 76% 29.88 in 10.0 mi Calm Calm - N/A   Overcast
2:53 AM 77.0 °F - 66.0 °F 69% 29.88 in 10.0 mi West 8.1 mph - N/A   Mostly Cloudy
3:42 AM 77.0 °F - 68.0 °F 74% 29.87 in 10.0 mi West 6.9 mph - N/A   Overcast
3:53 AM 77.0 °F - 68.0 °F 74% 29.87 in 10.0 mi West 8.1 mph - N/A   Overcast
4:00 AM 77.0 °F - 66.2 °F 69% 29.87 in 10.0 mi West 8.1 mph - N/A   Overcast
4:53 AM 77.0 °F - 66.0 °F 69% 29.87 in 10.0 mi West 6.9 mph - N/A   Overcast
5:18 AM 75.2 °F - 66.2 °F 73% 29.86 in 10.0 mi East 5.8 mph - N/A   Overcast
5:53 AM 75.0 °F - 68.0 °F 79% 29.87 in 10.0 mi SE 5.8 mph - 0.00 in   Mostly Cloudy
6:53 AM 73.9 °F - 66.9 °F 79% 29.88 in 10.0 mi ESE 4.6 mph - N/A   Mostly Cloudy
7:00 AM 75.2 °F - 66.2 °F 73% 29.88 in 10.0 mi East 3.5 mph - N/A   Scattered Clouds
7:53 AM 77.0 °F - 66.0 °F 69% 29.89 in 10.0 mi SSE 4.6 mph - N/A   Scattered Clouds
8:53 AM 79.0 °F - 66.9 °F 66% 29.91 in 10.0 mi SSE 12.7 mph - N/A   Scattered Clouds
9:53 AM 81.0 °F 82.7 °F 64.9 °F 58% 29.91 in 10.0 mi South 12.7 mph - N/A   Scattered Clouds
10:53 AM 82.0 °F 83.1 °F 63.0 °F 52% 29.89 in 10.0 mi SSW 6.9 mph - N/A   Clear
11:53 AM 82.0 °F 83.4 °F 64.0 °F 54% 29.87 in 10.0 mi SSW 9.2 mph - N/A   Clear
12:53 PM 82.0 °F 84.1 °F 66.0 °F 58% 29.86 in 10.0 mi SSW 10.4 mph - N/A   Partly Cloudy
1:53 PM 82.9 °F 85.0 °F 66.0 °F 56% 29.83 in 10.0 mi South 10.4 mph - N/A   Partly Cloudy
2:53 PM 80.1 °F 81.9 °F 64.9 °F 60% 29.83 in 10.0 mi Variable 5.8 mph - N/A   Scattered Clouds
3:53 PM 80.1 °F 81.7 °F 64.0 °F 58% 29.83 in 10.0 mi South 6.9 mph - N/A   Overcast
4:53 PM 80.1 °F 81.7 °F 64.0 °F 58% 29.84 in 10.0 mi South 9.2 mph - N/A   Mostly Cloudy
5:53 PM 79.0 °F - 64.0 °F 60% 29.86 in 10.0 mi Calm Calm - N/A   Overcast
6:53 PM 79.0 °F - 64.0 °F 60% 29.88 in 10.0 mi Calm Calm - N/A   Overcast
7:53 PM 79.0 °F - 64.0 °F 60% 29.91 in 10.0 mi NW 4.6 mph - N/A   Mostly Cloudy
8:53 PM 77.0 °F - 59.0 °F 54% 29.91 in 10.0 mi Variable 3.5 mph - N/A   Partly Cloudy
9:53 PM 75.9 °F - 57.9 °F 54% 29.91 in 10.0 mi NE 13.8 mph - N/A   Clear
10:53 PM 75.0 °F - 61.0 °F 62% 29.91 in 10.0 mi NE 10.4 mph - N/A   Clear
11:53 PM 73.9 °F - 63.0 °F 68% 29.90 in 10.0 mi ENE 5.8 mph - N/A   Clear